Location: Berkeley
(37.8716°N, 122.2727°W)
Time: 18:13:50
(UTC-07:00)

Envisat - Visible Passes

Search period start: 20 October 2017 00:00
Search period end: 30 October 2017 00:00
Orbit: 764 x 766 km, 98.2° (Epoch: 20 October)

Date Brightness Start Highest point End Pass type
(mag) Time Alt. Az. Time Alt. Az. Time Alt. Az.
20 Oct 4.5 20:19:01 21° NNE 20:19:01 21° NNE 20:21:03 10° N visible
20 Oct 5.8 21:59:13 12° NW 21:59:13 12° NW 21:59:44 10° NW visible
21 Oct 4.9 19:42:01 13° NE 19:42:01 13° NE 19:43:06 10° NNE visible
21 Oct 5.2 21:22:14 19° NNW 21:22:14 19° NNW 21:23:41 10° NNW visible
22 Oct 4.7 20:45:15 21° N 20:45:15 21° N 20:46:59 10° N visible
23 Oct 4.8 20:08:16 17° NNE 20:08:16 17° NNE 20:09:42 10° NNE visible
23 Oct 5.8 21:48:29 12° NW 21:48:29 12° NW 21:48:54 10° NNW visible
24 Oct 5.2 21:11:29 17° NNW 21:11:29 17° NNW 21:12:38 10° NNW visible
25 Oct 4.9 20:34:30 18° N 20:34:30 18° N 20:35:47 10° N visible
26 Oct 5.0 19:57:31 13° NNE 19:57:31 13° NNE 19:58:16 10° NNE visible
26 Oct 5.8 21:37:43 11° NNW 21:37:43 11° NNW 21:38:01 10° NNW visible
27 Oct 5.3 21:00:44 15° N 21:00:44 15° N 21:01:33 10° N visible
28 Oct 5.1 20:23:44 14° N 20:23:44 14° N 20:24:31 10° N visible
29 Oct 5.8 21:26:57 10° NNW 21:26:57 10° NNW 21:27:02 10° NNW visible
